STARLINK-4387, 53490

Orbit data source: Space-Track

STARLINK-4387, 53490 is a payload satellite owned by SpaceX/Seattle (US) in SSO that was launched on Fri, 12 Aug 2022 UTC via an FALCON 9 launch vehicle from the Air Force Western Test Range (AFWTR). Payload-class satellites include a variety of spacecraft equipped with specific instruments for various scientific and technological missions. These include communications satellites like Starlink; space stations such as the ISS; scientific satellites like the Hubble; Earth observation satellites from companies like Planet Labs, Umbra, and HawkEye 360; GPS; miniature CubeSats for education and research; and military/defense satellites.

Loading next visibility...
Identifier
53490, 2022-099AB
Orbit
SSO
Country
Flag of USUS
Related business
Manufacturer
SpaceX/Seattle
Mission
Operational Commercial Communications
Bus & Motor
STARLINK, Unknown motor
Mass
300 kg wet, ~275 kg dry
Launch date (UTC)
2022-08-12 (3 years ago)
Launch vehicle
FALCON 9
Launch site
Air Force Western Test Range (AFWTR)
Object type
Payload
Rocket body
Debris
Shape & HBR
Box + 1 Pan, 10.1 m
Radar Cross Section
13.562 m², Large (>1 m²)

Expand to show TLE details & history
Last TLE update: 11 hours ago

TLE from 11 hours ago
0 STARLINK-4387
1 53490U 22099AB  25308.58929840 -.00000057  00000-0  26628-6 0  9999
2 53490  97.6051  67.8870 0001732  92.1711 267.9715 15.05648499177217
Epoch: 2025-11-04T14:08Z
TLE epoch observation values (Epoch: 2025-11-04T14:08:35.381Z)
Latitude
0.00005°
Longitude
171.66542°
Altitude
552.624 km
Speed
7.585 km/s
True Right ascension
04h 31m 32s
True Declination
0° 00' 00"
Sunlit
Object was in full shadow at epoch
Visualization orbit readout
Latitude
Unknown
Longitude
Unknown
Altitude
Unknown
Speed
Unknown
Apparent Right ascension
Unknown
Apparent Declination
Unknown
Sunlit
N/A
Visualization observer readout
Local Sidereal Time
20:44:22
Azimuth
Unknown
Elevation
Unknown
Doppler factor
Unknown
Orbital elements
Apogee altitude
547.709 km
Perigee altitude
545.31 km
Semi-major axis
6,924.646 km
Eccentricity
0.00017
Inclination
97.6051°
RAAN
67.887°
Arg. of periapsis
92.1711°
True anomaly
267.95167°
Mean anomaly
267.9715°
Eccentric anomaly
267.96158°
Mean motion
3.76658 °/min
Orbital period
95.58 mins
BSTAR
2.6628e-7
Loading maneuver chart data...
Computing Atmospheric mass density...
Loading historical data...
Loading historical data...
Loading historical data...
Loading historical data...
Loading historical data...
Loading historical data...
Loading historical data...

Documentation

Showing up to 5 results
|